Location: Mt. Graham
(32.7020°N, 109.8880°W)
Time: 11:14:19
(UTC-07:00)

ISS - Visible Passes

Search period start: 28 February 2024 00:00
Search period end: 09 March 2024 00:00
Orbit: 414 x 422 km, 51.6° (Epoch: 28 February)

Date Brightness Start Highest point End Pass type
(mag) Time Alt. Az. Time Alt. Az. Time Alt. Az.
04 Mar -1.3 05:56:19 10° NNW 05:58:51 20° NE 06:01:24 10° E visible
05 Mar -0.9 05:09:00 10° N 05:10:35 13° NNE 05:12:11 10° ENE visible
06 Mar -3.2 05:56:16 10° NW 05:59:35 58° NE 06:02:53 10° ESE visible
07 Mar -2.1 05:09:37 19° NNW 05:11:23 31° NE 05:14:24 10° ESE visible
08 Mar -0.9 04:23:59 17° ENE 04:23:59 17° ENE 04:25:32 10° E visible
08 Mar -3.1 05:56:57 11° WNW 05:59:54 35° SW 06:02:59 10° SSE visible
